Tracking 30995 objects as of 6-Jul-2025
HD Live streaming from Space Station
objects crossing your sky now

COSMOS 1529

Track COSMOS 1529 now!
10-day predictions
COSMOS 1529 is classified as:


NORAD ID: 14618
Int'l Code: 1984-001H
Perigee: 1,468.6 km
Apogee: 1,517.8 km
Inclination: 74.0 °
Period: 115.7 minutes
Semi major axis: 7864 km
RCS: 0.6948 m2 (medium)
Launch date: January 5, 1984
Source: Commonwealth of Independent States (former USSR) (CIS)
Launch site: PLESETSK MISSILE AND SPACE COMPLEX (PKMTR)
Your satellite tracking list
Your tracking list is empty




NASA's NSSDC Master Catalog

Two Line Element Set (TLE):
1 14618U 84001H   25187.64924090 -.00000003  00000-0  85843-4 0  9996
2 14618  74.0066 242.2120 0031261  57.6363  59.6881 12.44861705712792
Source of the keplerian elements: AFSPC